User: anonymous   Login
Location: Bergnershof
(48.9468°N, 10.9431°E)
Time: 19:03:03
(UTC+00:00)
Language:

Meteor 2-4 Rocket - Orbit

View from above orbital plane
View from above orbital plane
View from above satellite
View from above satellite

Ground track
Ground track

The orbit data is extracted from the following two-line orbital elements,

1 11289U 79021B   21136.68964977 -.00000020  00000-0 -17810-4 0  9994
2 11289  81.2483 209.4596 0076289 136.7044 224.0158 14.11620101172257
Epoch (UTC): 16 May 2021 16:33:05
Eccentricity: 0.0076289
inclination: 81.2483°
perigee height: 798 km
apogee height: 909 km
right ascension of ascending node: 209.4596°
argument of perigee: 136.7044°
revolutions per day: 14.11620101
mean anomaly at epoch: 224.0158°
orbit number at epoch: 17225

The dashed part of the orbit path shows where the satellite is in the earth's shadow,  

DLR